IR1CH-3 Weather Reports


Display with metric or nautical units.
time (UTC)temp
F
wind
direction
speed
MPH
gust
MPH
rain 1hr
in
rain 24hr
in
rain mn
in
humidity
%
barometer
mb
20260507111114 68 0.0 0.0 0.00 0.00 0.00 84 1013.7
20260507104114 68 0.0 0.0 0.00 0.00 0.00 83 1013.5
20260507101113 67 0.0 0.0 0.00 0.00 0.00 86 1013.6
20260507094113 66 0.0 0.0 0.00 0.00 0.00 93 1013.5
20260507091113 66 0.0 0.0 0.00 0.00 0.00 85 1013.0
20260507084112 66 0.0 0.0 0.00 0.00 0.00 85 1012.9
20260507081112 65 0.0 0.0 0.00 0.00 0.00 83 1012.5
20260507074112 63 0.0 0.0 0.00 0.00 0.00 82 1012.3
20260507071112 63 0.0 0.0 0.00 0.00 0.00 86 1012.6
20260507064111 62 0.0 0.0 0.00 0.00 0.00 91 1012.5
20260507061111 62 0.0 0.0 0.00 0.00 0.00 88 1012.2
20260507054111 61 0.0 0.0 0.00 0.00 0.00 87 1012.0
20260507051110 57 0.0 0.0 0.00 0.00 0.00 98 1011.8
20260507044110 56 0.0 0.0 0.00 0.00 0.00 99 1011.7
20260507041110 56 0.0 0.0 0.00 0.00 0.00 99 1011.6
20260507034109 56 0.0 0.0 0.00 0.00 0.00 99 1011.4
20260507031109 56 0.0 0.0 0.00 0.00 0.00 99 1011.4
20260507024109 57 0.0 0.0 0.00 0.00 0.00 99 1011.3
20260507021108 57 0.0 0.0 0.00 0.00 0.00 99 1011.2
20260507014108 57 0.0 0.0 0.00 0.00 0.00 99 1011.2
20260507011107 57 0.0 0.0 0.00 0.00 0.00 99 1011.2
20260507004107 57 0.0 0.0 0.00 0.00 0.00 99 1011.4
20260507001107 57 0.0 0.0 0.00 0.00 0.00 99 1011.2
20260506234107 57 0.0 0.0 0.00 0.00 0.00 99 1011.1
20260506231106 57 0.0 0.0 0.00 0.00 0.00 99 1011.0
20260506224106 58 0.0 0.0 0.00 0.00 0.00 99 1011.0
20260506221106 58 0.0 0.0 0.00 0.00 0.00 99 1011.1
20260506214105 59 0.0 0.0 0.00 0.00 0.00 99 1010.9
20260506211105 59 0.0 0.0 0.00 0.00 0.00 99 1010.6
20260506204134 60 0.0 0.0 0.00 0.00 0.00 99 1010.4
20260506201134 60 0.0 0.0 0.00 0.00 0.00 99 1009.8
20260506194134 60 0.0 0.0 0.00 0.00 0.00 99 1009.5
20260506191133 59 0.0 0.0 0.00 0.00 0.00 99 1009.6
20260506184133 60 0.0 0.0 0.00 0.00 0.00 99 1008.9
20260506181133 59 0.0 0.0 0.00 0.00 0.00 99 1009.1
20260506174132 59 0.0 0.0 0.00 0.00 0.00 99 1008.6
20260506171132 61 0.0 0.0 0.00 0.00 0.00 98 1007.6
20260506164132 62 0.0 0.0 0.00 0.00 0.00 97 1007.3
20260506161131 62 0.0 0.0 0.00 0.00 0.00 99 1007.3
20260506154131 62 0.0 0.0 0.00 0.00 0.00 99 1007.4
20260506151131 62 0.0 0.0 0.00 0.00 0.00 99 1007.4
20260506144131 61 0.0 0.0 0.00 0.00 0.00 99 1007.9
20260506141130 61 0.0 0.0 0.00 0.00 0.00 99 1008.4
20260506134130 61 0.0 0.0 0.00 0.00 0.00 99 1008.0
20260506131130 62 0.0 0.0 0.00 0.00 0.00 99 1007.8
20260506124129 65 0.0 0.0 0.00 0.00 0.00 84 1007.4
20260506121129 62 0.0 0.0 0.00 0.00 0.00 99 1008.0
20260506114129 61 0.0 0.0 0.00 0.00 0.00 99 1008.5